Location: La Trinit�
(48.1620°N, 3.4512°W)
Time: 03:55:41
(UTC+00:00)

Cosmos 1602 - Pass Details

Date: 08 May 2021
Orbit: 514 x 532 km, 82.5° (Epoch: 13 June)

Event Time Altitude Azimuth Distance (km) Brightness Sun altitude
Rises 20:57:42 0° 352° (N) 2,653 8.2 -11.7°
Reaches altitude 10° 20:59:51 10° 355° (N) 1,762 7.1 -12.0°
Maximum altitude 21:03:42 68° 79° (E) 565 3.7 -12.4°
Enters shadow 21:06:29 18° 161° (SSE) 1,329 5.2 -12.8°
